www.pogodaiklimat.ru
ПОГОДА в Солсбери
Время
и дата
18:54 19.05
19:54 19.05
20:54 19.05
21:54 19.05
22:03 19.05
22:54 19.05
23:54 19.05
00:37 20.05
00:54 20.05
01:54 20.05
02:30 20.05
02:54 20.05
03:54 20.05
04:05 20.05
04:20 20.05
04:54 20.05
05:17 20.05
05:50 20.05
05:54 20.05
06:54 20.05
07:54 20.05
08:24 20.05
08:34 20.05
08:54 20.05
09:24 20.05
09:52 20.05
09:54 20.05
10:54 20.05
11:54 20.05
12:54 20.05
13:54 20.05
14:54 20.05
15:54 20.05
16:54 20.05
17:54 20.05
18:54 20.05
19:54 20.05
20:54 20.05
21:54 20.05
22:54 20.05
23:20 20.05
23:29 20.05
23:40 20.05
23:51 20.05
23:54 20.05
00:54 21.05
01:54 21.05
02:08 21.05
Ветер
(напр.,м/с)
Видим. Явления Облачность Т
(С)
Тd
(С)
f
(%)
Тe
(С)
Тes
(С)
Комфортность P
(гПа)
Po
(гПа)
Тmin
(С)
Tmax
(С)
R
(мм)
R24
(мм)
S
(см)
В 3 16 км ясно +16.7 +13.3 80 +16 +17 1015.6 1013.5 +16.7 +21.1
ЮВ 2 16 км ясно +15.0 +12.8 87 +15 +15 1016.2 1013.9
штиль 0 16 км ясно +13.9 +12.2 89 +13 +13 1016.9 1014.9
штиль 0 16 км ясно +12.8 +12.2 96 +12 +12 1017.6 1015.6
штиль 0 16 км 2/2 240 м +12.8 +12.2 96 +12 +12 1015.2
штиль 0 16 км ясно +12.2 +11.7 97 +12 +12 1017.4 1015.2
штиль 0 16 км 8/8 1080 м +12.2 +11.1 93 +12 +12 1017.2 1014.9
СВ 2 16 км 8/8 240 м +11.7 +11.1 96 +10 +10 1014.9
СВ 3 16 км 10/10 210 м +12.2 +11.7 97 +10 +10 1017.2 1014.9 +11.1 +16.7
СВ 2 16 км 10/10 150 м +12.2 +11.7 97 +11 +11 1016.5 1014.2
С 2 16 км 5/5 150 м +11.1 +11.1 100 +10 +10 1014.2
штиль 0 16 км ясно +11.1 +11.1 100 +10 +10 1016.1 1013.9
СЗ 2 16 км 5/5 300 м +10.6 +10.6 100 +9 +9 1016.4 1014.2
СЗ 2 16 км 8/8 300 м +11.1 +10.6 97 +10 +10 1014.2
штиль 0 16 км 5/5 300 м +11.1 +10.6 97 +10 +10 1014.2
С 2 16 км 2/2 1020 м +11.1 +10.6 97 +10 +10 1016.9 1014.5
С 2 16 км 10/10 330 м +11.7 +11.1 96 +10 +10 1014.9
СВ 3 16 км 10/10 270 м +12.0 +12.0 100 +10 +10 1015.2
СВ 3 16 км 10/10 270 м +12.2 +11.7 97 +10 +10 1017.3 1015.2
СВ 4 16 км 10/10 210 м +12.8 +11.7 93 +11 +11 1018.3 1016.2 +10.6 +12.8
СВ 3 16 км 10/10 210 м +13.3 +12.2 93 +12 +12 1019.1 1016.9
СВ 4 16 км 10/10 300 м +14.4 +12.8 90 +13 +13 1016.9
С 3 16 км 10/10 270 м +14.4 +12.2 87 +13 +13 1016.9
СВ 3 16 км 10/10 270 м +15.0 +12.8 87 +14 +14 1019.1 1016.9
СВ 4 16 км 8/8 360 м +16.7 +12.8 78 +16 +18 1016.6
штиль 0 16 км 8/8 420 м +18.0 +13.0 73 +18 +21 1016.6
СВ 3 16 км 8/8 420 м +17.2 +12.8 75 +17 +19 1018.7 1016.6
СВ 3 16 км 2/2 630 м +19.4 +13.3 68 +21 +32 комфорт 1018.5 1016.2
СВ 3 16 км 2/2 840 м +21.1 +14.4 66 +24 +37 комфорт 1017.7 1015.6
С 3 16 км 8/8 1020 м +22.8 +14.4 59 +26 +30 жарко 1017.3 1015.2 +12.8 +23.3
СВ 3 16 км 10/10 1050 м +22.8 +14.4 59 +26 +26 жарко 1016.9 1014.9
СВ 3 16 км 8/8 1140 м +24.4 +15.0 56 +27 +30 жарко 1016.5 1014.2
штиль 0 16 км 8/8 1200 м +23.3 +15.0 60 +27 +31 душно 1016.5 1014.2
В 4 16 км ясно +22.8 +15.0 61 +27 +32 душно 1016.3 1014.2
В 4 16 км ясно +21.7 +15.0 66 +25 +28 комфорт 1016.1 1013.9
В 3 16 км ясно +17.8 +14.4 80 +18 +19 1016.6 1014.5 +17.8 +24.4
ЮВ 3 16 км ясно +15.0 +13.3 90 +14 +14 1017.0 1014.9
В 2 16 км ясно +13.3 +12.2 93 +13 +13 1017.7 1015.6
штиль 0 16 км ясно +12.8 +11.7 93 +12 +12 1017.6 1015.6
штиль 0 16 км ясно +12.2 +11.1 93 +12 +12 1017.3 1015.2
Ю 2 14 км 5/5 90 м +11.7 +11.7 100 +10 +10 1015.2
Ю 2 16 км 8/8 90 м +11.7 +11.7 100 +10 +10 1014.9
Ю 2 3 км дымка 10/10 90 м +11.1 +11.1 100 +10 +10 1014.9
ЮВ 2 1 км дымка ?/? +11.0 +11.0 100 +10 +10 1014.9
Ю 2 800 м туман ?/? +11.1 +11.1 100 +10 +10 1016.9 1014.9
штиль 0 800 м туман ?/? +11.1 +11.1 100 +10 +10 1017.0 1014.9 +11.1 +17.8
штиль 0 800 м туман ?/? +11.1 +11.1 100 +10 +10 1016.6 1014.5
штиль 0 400 м туман ?/? +11.1 +11.1 100 +10 +10 1014.2
Местоположение метеостанции Salisbury-Ocean City Wicomico County Regional Airport: широта 38.3406 долгота -75.5103 высота над уровнем моря 16 м.
В архиве по умолчанию представлена погода в Солсбери за последние 1-2 суток. Обновление информации о фактической погоде в базе происходит ежечасно! Архивные данные за месяц целиком и за предыдущие месяцы Вы можете получить, выбрав интересующий диапазон дат из раскрывающегося списка и нажав кнопку "Ввод!".
Внимание! Архив погоды МЕТАР в базе сайта по станциям, не включенным в климатический монитор, хранится не более 60 дней. Нет смысла пытаться выбрать более раннюю дату.
*Определитесь, кто Вы:
Внимание! Время в таблицах - местное (без учета летнего времени). Для получения всемирного времени необходимо вычесть поправку, которая равна -5 ч.
Смотрите также архив погоды в соседних городах и на ближайших метеорологических станциях:
Партнеры нашего сайта:      
Пояснения к столбцам:
  • Ветер - указаны скорость ветра в м/с - средняя за 10 мин, порывы в срок и между сроками (в фигурных скобках) и направление, откуда дует ветер: С - северный,
  • СВ - северо-восточный, В - восточный, ЮВ - юго-восточный, Ю - южный, ЮЗ - юго-западный, З - западный, СЗ - северо-западный.
  • Видимость - горизонтальная дальность видимости в метрах или километрах. При видимости от 1 до 10 км при отсутствии осадков обычно наблюдается дымка, при ухудшении видимости до 1 км и менее - туман. В сухую погоду видимость может ухудшаться дымом, пылью или мглою.
  • Явления - указаны атмосферные явления, наблюдавшиеся в срок или в последний час перед сроком; фигурными скобками обозначены явления, наблюдавшиеся между сроками (за 1-3 часа до срока); квадратными скобками обозначены град или гололедные отложения с указанием их диаметра в мм.
  • Облачность - указаны через наклонную черту общая и нижняя облачность в баллах и высота нижней границы облаков в метрах; квадратными скобками обозначены формы облаков: Ci - перистые, Cs - перисто-слоистые, Cc - перисто-кучевые, Ac - высококучевые, As - высокослоистые, Sc - слоисто-кучевые, Ns - слоисто-дождевые, Cu - кучевые, Cb - кучево-дождевые. Подробнее классификацию облаков см. в Атласе облаков (PDF).
  • T - Температура воздуха - температура, измеренная на высоте 2 м над землей.
  • Td - Температура точки росы - температура, при понижении до которой содержащийся в воздухе водяной пар достигнет насыщения.
  • f - Относительная влажность воздуха - влажноcть воздуха, измеренная на высоте 2 м над землей.
  • Te - Эффективная температура - температура, которую ощущает одетый по сезону человек в тени. Характеристика душности погоды. При расчете учитывается влияние влажности воздуха и скорости ветра на теплоощущения человека.
  • Tes - Эффективная температура на солнце - температура, которую ощущает человек, с поправкой на солнечный нагрев. Характеристика знойности погоды. Зависит от высоты солнца над горизонтом, облачности и скорости ветра. Ночью, в пасмурную погоду, а также при ветре 12 м/с и более поправка равна нулю.
  • P - Атмосферное давление - приведенное к уровню моря атмосферное давление.
  • Po - Атмосферное давление - измеренное на уровне метеостанции атмосферное давление.
  • Tmin - Минимальная температура - минимум температуры воздуха на высоте 2 м над землей.
  • Tmax - Максимальная температура - максимум температуры воздуха на высоте 2 м над землей.
  • R - Количество осадков - Количество выпавших осадков за период времени, мм. При наведении курсора мыши на число - период времени, за который выпало указанное количество осадков.
  • R24 - Количество осадков - Количество выпавших осадков за 24 часа, мм.
  • S - Снежный покров - Высота снежного покрова, см. При наведении курсора мыши на число - состояние снежного покрова и степень покрытия местности в баллах.